CZ-8A R/B, 62980

Orbit data source: Space-Track

CZ-8A R/B, 62980 is space debris in LEO originally from a launch on Tue, 11 Feb 2025 UTC launched from the Wenchang Satellite Launch Center (WSC). Debris objects in space refer to the collection of defunct objects orbiting the Earth. Examples of debris include non-operational satellites, rocket bodies, and fragments generated from explosions, collisions, or faulty payload assembly.

Loading next visibility...
Identifier
62980, 2025-030K
Orbit
LEO
Country
Flag of CNCN / PRC
Related business
Manufacturer
CALT
Mission
Spacecraft
Bus & Motor
CZ-8A STAGE 2, Unknown motor
Mass
~2,800 kg wet, ~2,800 kg dry
Launch date (UTC)
2025-02-11 (9 months ago)
Launch vehicle
Unknown
Launch site
Wenchang Satellite Launch Center (WSC)
Object type
Payload
Rocket body
Debris
Shape & HBR
Cyl, 4.2 m
Radar Cross Section
36.967 m², Large (>1 m²)

Expand to show TLE details & history
Last TLE update: 17 hours ago

TLE from 17 hours ago
0 CZ-8A R/B
1 62980U 25030K   25308.94759986  .00000086  00000-0  85647-4 0  9998
2 62980  50.0048 174.8650 0118326 305.5810  53.4126 14.32840408 38217
Epoch: 2025-11-04T22:44Z
TLE epoch observation values (Epoch: 2025-11-04T22:44:32.627Z)
Latitude
-0°
Longitude
149.30174°
Altitude
732.94 km
Speed
7.516 km/s
True Right ascension
11h 39m 27s
True Declination
0° 00' 00"
Sunlit
Object was in daylight at epoch
Visualization orbit readout
Latitude
Unknown
Longitude
Unknown
Altitude
Unknown
Speed
Unknown
Apparent Right ascension
Unknown
Apparent Declination
Unknown
Sunlit
N/A
Visualization observer readout
Local Sidereal Time
11:32:56
Azimuth
Unknown
Elevation
Unknown
Doppler factor
Unknown
Orbital elements
Apogee altitude
867.727 km
Perigee altitude
698.258 km
Semi-major axis
7,161.13 km
Eccentricity
0.01183
Inclination
50.0048°
RAAN
174.865°
Arg. of periapsis
305.581°
True anomaly
54.51094°
Mean anomaly
53.4126°
Eccentric anomaly
53.96081°
Mean motion
3.58155 °/min
Orbital period
100.52 mins
BSTAR
0.000085647
Loading maneuver chart data...
Computing Atmospheric mass density...
Loading historical data...
Loading historical data...
Loading historical data...
Loading historical data...
Loading historical data...
Loading historical data...
Loading historical data...

Documentation

Showing up to 5 results
|